Temp
63 63 63 63 63 63 63 63 63 63 64 64 64 64 64 64 65 96 95 97 97 86 85 106 107 110 111 107 108 107 84 80 82 83 85 95 91 88 82 90 95 94 92 94 97
63 63 63 63 63 63 63 63 63 63 63 63 64 64 64 64 85 95 93 86 87 86 104 105 105 108 103 104 104 97 86 86 90 91 90 94 87 76 70 77 90 92 96 95 96
63 63 62 62 63 63 62 63 62 63 63 63 64 64 64 68 89 98 86 87 88 88 105 106 109 107 102 103 102 98 87 94 94 97 97 90 91 87 82 88 92 87 90 93 94
63 63 62 62 62 62 62 62 62 62 62 63 64 65 65 84 80 103 90 89 88 100 105 106 107 101 98 94 101 91 96 97 96 97 96 93 97 93 94 93 98 96 94 94 92
62 62 62 62 62 62 62 62 62 62 62 63 64 65 80 88 93 106 90 92 105 107 106 105 102 101 93 99 99 95 95 99 98 98 98 98 94 93 93 99 100 97 95 93 94
62 62 62 61 62 62 62 61 61 61 62 63 65 64 83 84 111 111 109 109 109 109 107 107 104 104 100 99 96 98 97 98 100 98 99 95 95 88 94 101 97 95 94 95 95
61 61 61 61 61 61 61 61 61 61 62 64 66 79 88 92 111 113 110 109 111 110 105 109 109 103 103 97 102 99 92 97 97 97 95 98 88 91 99 100 96 95 95 95 96
61 61 61 61 61 61 61 60 60 62 63 65 67 83 86 109 112 109 111 108 112 112 110 111 110 104 102 104 99 94 93 80 93 96 96 95 77 94 100 98 95 96 96 95 96
60 60 60 60 60 60 59 59 61 63 65 67 79 86 88 99 102 108 110 104 108 110 110 111 107 100 102 93 89 92 81 85 88 97 95 93 86 95 101 99 96 96 96 96 95
60 60 60 60 59 59 58 59 64 63 74 86 91 86 94 96 104 107 111 109 104 104 102 101 99 94 96 91 77 82 84 87 85 93 93 89 89 96 100 99 97 97 96 95 96
60 59 59 59 59 58 62 77 81 82 86 88 91 91 98 106 109 104 108 104 104 100 90 97 90 86 89 93 93 91 88 86 90 95 90 88 89 94 98 99 97 97 97 97 97
60 59 59 59 58 58 66 83 94 99 84 92 96 98 103 104 95 100 107 95 94 88 94 92 86 95 96 94 91 90 87 86 90 94 91 89 88 94 97 97 99 99 98 98 99
59 59 58 58 58 62 82 89 104 104 88 91 95 97 98 101 94 96 102 98 92 89 91 87 92 97 93 91 88 90 87 85 84 90 93 90 85 88 94 97 99 100 102 101 99
58 59 58 58 60 88 85 96 103 104 78 86 89 96 100 100 93 106 106 99 94 88 91 91 97 93 90 88 91 84 92 90 87 84 77 92 71 83 79 87 95 98 100 101 101
58 58 57 54 68 89 98 105 105 99 64 89 91 107 102 94 98 98 107 101 91 91 93 88 91 90 86 89 94 87 94 89 88 84 84 85 76 73 73 67 83 96 99 101 102
57 57 57 66 73 88 104 104 97 75 66 85 93 90 91 94 96 99 98 103 102 94 94 92 100 96 93 95 96 95 90 89 89 85 74 82 79 62 56 60 76 95 98 100 103
56 55 57 79 90 104 104 95 75 69 91 84 85 90 90 89 92 92 90 88 86 79 81 89 90 96 97 89 95 92 86 74 71 72 69 82 80 70 67 70 81 94 96 99 102
54 54 62 79 94 100 97 83 66 84 86 94 91 90 86 92 91 90 88 85 92 91 86 81 78 90 96 90 86 88 88 76 59 61 67 83 75 77 81 81 98 98 95 99 99
53 74 85 91 91 95 87 72 74 87 94 90 91 85 86 91 91 89 88 88 92 93 82 82 82 96 96 97 94 87 82 91 80 77 72 76 75 91 95 94 96 94 95 95 94
73 89 93 101 101 93 81 68 80 95 97 96 84 88 82 87 86 87 87 93 92 97 98 90 79 92 94 96 95 91 95 80 82 66 63 62 59 55 83 88 92 94 93 86 74
77 85 99 104 100 86 75 83 90 96 96 91 89 87 89 87 88 87 88 93 96 95 97 94 88 84 91 87 86 87 84 86 86 80 65 60 55 85 86 89 90 91 92 88 81
86 81 100 102 81 85 82 89 71 94 97 94 95 93 90 91 88 88 87 92 98 97 88 94 89 80 85 95 97 93 87 87 76 71 79 74 69 91 91 92 91 91 92 91 92
81 89 100 98 77 83 89 91 91 92 93 92 91 95 95 90 84 90 89 95 97 94 87 92 85 76 79 87 83 84 89 90 89 87 75 72 70 91 92 91 91 90 90 90 90
79 82 88 91 91 85 85 87 87 95 93 96 94 96 92 89 92 87 88 92 95 94 77 87 87 80 74 77 76 73 81 87 87 78 78 78 75 81 86 85 87 88 89 90 88
83 85 92 79 84 86 89 90 86 86 93 94 90 91 89 84 87 86 90 90 92 78 90 91 79 83 85 86 77 81 78 83 80 83 77 80 80 85 82 83 84 86 88 88 88
80 77 87 89 90 87 79 85 87 90 90 88 87 91 92 85 88 84 87 89 86 90 88 92 79 82 79 86 86 82 85 86 86 85 84 84 81 87 86 86 84 84 84 86 86
88 89 86 77 88 86 86 87 88 92 94 95 93 91 90 91 95 96 97 96 95 88 86 85 82 77 71 81 80 74 82 83 85 86 84 76 82 86 84 83 83 82 83 83 84
MSLP
1015.02 1014.79 1014.63 1014.44 1014.23 1014.06 1013.85 1013.59 1013.27 1012.87 1012.44 1011.94 1011.36 1010.87 1010.46 1009.85 1008.39 1006.47 1005.27 1004.24 1003.65 1003.36 1003.12 1001.73 1000.67 999.08 998.51 997.75 997.73 997.66 998.80 999.32 999.97 1000.50 1000.54 1000.50 1001.15 1002.91 1004.56 1003.28 1002.40 1002.61 1003.16 1004.26 1005.32
1014.85 1014.66 1014.46 1014.33 1014.14 1013.95 1013.77 1013.53 1013.16 1012.73 1012.29 1011.84 1011.33 1010.81 1010.47 1009.94 1008.15 1005.48 1003.93 1003.66 1003.50 1003.44 1002.81 1000.73 998.99 998.39 997.68 997.29 997.17 997.73 998.41 999.01 999.76 999.94 1000.12 1000.40 1001.67 1003.83 1005.58 1003.69 1002.50 1002.68 1003.34 1004.59 1005.53
1014.72 1014.53 1014.35 1014.14 1013.94 1013.76 1013.59 1013.41 1013.14 1012.74 1012.30 1011.84 1011.31 1010.74 1010.38 1010.03 1007.08 1003.63 1003.50 1003.34 1003.22 1003.47 1002.84 1001.27 999.26 998.01 997.14 997.35 997.12 997.93 998.51 999.02 999.56 999.71 999.81 1000.95 1000.83 1001.78 1002.30 1001.56 1001.79 1002.98 1003.88 1004.80 1005.49
1014.60 1014.36 1014.19 1014.01 1013.78 1013.58 1013.41 1013.20 1012.92 1012.55 1012.05 1011.63 1011.12 1010.49 1009.88 1008.91 1005.30 1003.12 1003.40 1003.17 1003.03 1003.13 1002.25 1000.11 998.63 997.70 996.96 997.45 997.45 998.27 998.85 998.92 999.45 999.78 999.51 999.88 1000.16 1000.78 1001.05 1001.42 1001.77 1002.85 1004.02 1004.73 1005.40
1014.54 1014.23 1014.04 1013.81 1013.61 1013.43 1013.20 1012.98 1012.68 1012.33 1011.81 1011.40 1010.97 1010.49 1008.97 1006.82 1003.51 1002.92 1003.09 1002.91 1002.88 1002.23 1000.83 999.31 998.32 997.61 997.50 997.03 997.59 998.00 998.58 998.59 999.23 999.40 999.25 999.75 999.91 1000.45 1000.49 1000.83 1001.81 1002.97 1003.94 1004.62 1005.08
1014.39 1014.07 1013.82 1013.60 1013.36 1013.13 1012.95 1012.75 1012.45 1012.13 1011.67 1011.24 1010.91 1010.40 1008.78 1004.92 1001.64 1002.02 1002.50 1002.13 1001.85 1000.99 1000.08 999.41 998.64 998.54 997.88 997.39 997.87 998.43 998.74 998.16 998.45 998.95 999.06 999.28 999.48 1000.26 1000.29 1000.42 1001.76 1003.12 1003.71 1004.21 1004.59
1014.27 1013.91 1013.63 1013.44 1013.16 1012.86 1012.64 1012.45 1012.19 1011.87 1011.47 1011.11 1010.90 1010.06 1006.96 1003.48 1001.78 1001.61 1002.03 1001.62 1001.10 1000.65 999.82 999.51 999.34 998.83 998.01 997.72 998.32 998.35 998.10 997.85 998.32 998.72 998.87 999.13 999.57 999.20 999.68 1000.12 1001.07 1002.14 1003.07 1003.73 1004.16
1014.17 1013.76 1013.48 1013.25 1012.99 1012.74 1012.47 1012.21 1011.91 1011.56 1011.17 1010.79 1010.68 1009.44 1005.41 1002.37 1001.98 1001.77 1001.60 1001.33 1001.07 1000.77 1000.21 999.77 999.68 999.03 998.00 997.87 998.06 997.83 997.72 998.52 998.50 998.69 998.83 999.19 999.85 999.10 999.34 999.74 1000.28 1001.10 1001.93 1002.94 1003.72
1014.11 1013.69 1013.34 1013.09 1012.85 1012.63 1012.37 1012.05 1011.58 1011.24 1010.94 1010.57 1009.83 1007.86 1003.72 1001.92 1001.84 1001.76 1001.46 1000.92 1000.56 1000.50 1000.27 1000.21 999.96 998.91 998.01 997.69 997.41 996.95 997.60 997.59 997.94 998.27 998.49 998.45 998.39 998.28 998.49 998.87 999.41 1000.18 1001.01 1002.15 1003.19
1013.99 1013.57 1013.20 1012.94 1012.70 1012.50 1012.20 1011.92 1011.13 1010.94 1010.09 1009.32 1008.04 1006.38 1002.92 1001.32 1001.08 1001.21 1000.83 1000.62 1000.18 1000.12 1000.12 1000.01 999.42 998.29 997.33 996.96 997.43 997.28 997.04 997.19 997.51 997.89 998.14 998.34 997.96 997.65 997.64 997.99 998.77 999.25 1000.21 1001.30 1002.20
1013.86 1013.43 1013.04 1012.79 1012.59 1012.42 1012.02 1010.95 1010.37 1009.09 1007.66 1005.10 1003.88 1002.65 1001.02 1000.42 1000.55 1000.61 1000.70 1000.88 1000.36 1000.03 999.61 999.38 998.59 997.63 997.73 997.57 997.62 997.66 997.47 997.29 997.29 997.62 997.89 998.09 997.93 997.49 997.46 997.51 997.87 998.54 999.20 1000.17 1001.06
1013.71 1013.29 1012.95 1012.72 1012.52 1012.40 1012.06 1008.53 1004.92 1003.72 1004.19 1004.03 1002.71 1001.64 1001.08 1000.63 1000.43 1000.81 1000.86 1000.75 1000.40 999.60 999.32 998.71 998.00 997.29 997.69 998.12 998.11 997.85 997.45 997.14 997.33 997.63 997.83 997.72 997.63 997.53 997.54 997.70 997.76 997.86 998.35 999.14 1000.03
1013.56 1013.15 1012.89 1012.69 1012.39 1011.98 1009.40 1006.52 1004.44 1003.47 1002.35 1001.85 1001.94 1001.04 1000.81 1000.88 1000.07 999.82 1000.28 1000.19 999.97 999.52 998.88 998.01 997.42 997.68 998.13 998.05 997.94 997.28 996.99 997.31 997.86 997.70 997.42 997.38 997.65 998.14 998.63 998.68 998.30 998.15 998.03 998.42 999.13
1013.33 1012.98 1012.81 1012.59 1012.47 1008.52 1007.43 1006.02 1004.78 1003.79 1002.14 999.90 1000.71 1000.09 1000.02 1000.10 999.36 998.84 999.67 999.84 999.39 999.10 998.68 997.92 997.35 997.49 998.05 998.14 997.94 997.08 997.61 997.82 997.87 997.64 996.59 997.08 998.50 999.58 1000.62 999.80 999.00 998.49 998.01 998.04 998.49
1013.11 1012.80 1012.62 1012.86 1010.78 1006.63 1004.36 1004.08 1004.02 1003.75 1000.41 999.01 999.35 998.92 999.24 999.28 998.24 998.61 999.27 999.09 998.45 998.48 998.39 997.57 997.54 997.57 997.83 998.04 997.64 997.64 997.64 998.01 998.04 997.83 997.27 997.09 999.01 1002.28 1001.98 1002.24 1000.37 998.54 998.10 997.78 998.22
1012.76 1012.47 1012.32 1011.46 1010.10 1006.20 1004.09 1004.01 1004.15 1002.66 998.66 998.04 998.45 998.77 998.83 998.68 998.23 998.35 998.91 998.87 998.43 998.16 998.00 997.67 997.45 997.58 997.68 997.81 997.57 998.02 998.06 997.87 997.55 997.42 997.40 997.51 999.33 1004.34 1004.86 1005.10 1001.80 999.13 998.45 998.18 998.17
1012.29 1012.00 1012.00 1009.03 1005.82 1004.37 1004.04 1003.77 1002.66 999.94 997.27 997.32 997.79 998.16 998.13 997.93 997.82 998.44 998.63 998.84 998.33 998.41 997.76 997.76 997.68 997.60 997.95 997.83 997.59 997.75 997.40 997.05 997.13 997.23 998.33 998.56 999.18 1002.49 1003.62 1002.44 1001.89 999.24 998.88 998.77 998.59
1011.75 1011.45 1009.60 1008.17 1006.17 1004.87 1004.13 1003.15 1000.58 996.63 996.18 996.42 997.01 997.52 997.21 997.03 997.39 998.07 998.30 998.22 998.22 997.64 996.88 996.54 996.21 996.79 997.25 997.66 997.43 997.08 996.85 996.82 997.95 999.04 999.54 999.05 998.99 1000.64 1000.88 1001.24 999.44 999.04 999.50 999.31 999.68
1010.96 1009.57 1007.68 1006.23 1006.42 1005.67 1003.92 1001.67 998.37 995.68 995.18 995.61 996.13 996.56 996.39 996.64 996.76 997.43 997.51 997.34 997.12 997.43 996.94 995.94 995.73 996.18 996.53 996.74 997.21 996.97 996.62 996.63 996.95 997.97 998.76 1000.17 1000.44 999.35 999.12 999.04 999.14 999.45 999.59 1000.58 1001.62
1009.98 1006.76 1004.76 1004.30 1004.72 1004.78 1003.31 1000.47 998.69 995.84 994.88 995.05 995.39 995.76 995.73 995.98 996.56 996.71 996.76 996.66 996.42 996.59 996.98 996.35 996.01 996.27 996.43 997.12 997.14 996.85 996.76 996.46 996.49 997.57 999.11 1001.29 1002.94 1003.30 999.49 999.17 999.06 999.05 999.98 1002.14 1004.05
1009.29 1005.25 1002.98 1003.44 1003.90 1003.47 1001.37 998.63 996.92 996.52 996.06 995.04 994.80 995.05 994.88 995.30 996.05 995.96 995.94 996.09 996.26 996.33 996.98 996.83 996.45 996.81 996.70 996.70 996.41 996.77 996.94 996.97 996.87 998.02 999.16 1000.89 1003.70 1000.62 999.67 999.61 999.55 999.82 1000.70 1002.26 1003.91
1007.32 1003.70 1002.56 1003.16 1003.12 1001.74 1000.14 998.00 997.62 996.56 996.81 995.90 995.26 994.62 994.79 994.71 995.57 995.62 995.75 995.71 996.34 996.82 997.15 997.36 996.88 996.38 996.18 995.94 996.45 996.51 996.87 997.37 997.52 998.31 998.42 999.54 1000.39 1000.16 1000.14 999.94 1000.31 1000.70 1001.00 1002.24 1003.03
1007.07 1003.23 1002.72 1002.59 1001.60 1000.19 999.29 997.85 997.76 996.99 996.46 996.35 995.79 995.20 995.07 994.83 995.66 995.52 996.05 997.17 997.44 997.83 998.40 998.06 997.58 997.30 996.69 996.70 998.19 997.78 997.43 997.35 997.43 997.39 997.87 998.74 1000.50 1000.61 999.98 1000.28 1000.75 1001.37 1002.01 1002.58 1003.11
1007.72 1002.65 1002.58 1002.36 1001.26 1000.18 998.74 997.92 997.64 997.41 996.74 996.04 995.88 995.52 995.52 995.37 995.74 996.06 996.55 997.55 998.11 998.36 999.22 999.10 998.38 998.01 997.48 997.83 999.06 999.80 998.83 997.92 997.57 997.53 997.85 998.35 999.57 1000.02 1000.17 1001.08 1001.77 1002.39 1003.07 1003.39 1003.73
1006.78 1002.08 1000.55 1000.97 1000.71 1000.05 998.54 997.52 997.50 997.00 997.28 997.03 996.61 996.16 996.01 995.85 996.07 996.29 996.75 997.62 998.40 999.20 999.51 999.50 999.11 998.85 998.28 998.38 1000.11 999.41 999.13 999.07 998.59 998.15 998.35 998.78 999.21 999.62 1001.06 1002.03 1002.84 1003.36 1003.57 1003.78 1004.16
1006.08 1003.89 1001.81 999.90 999.72 999.63 998.76 998.02 997.26 996.74 996.87 996.81 996.91 996.61 996.16 996.27 996.19 996.16 996.75 997.24 997.74 999.13 999.50 999.25 999.18 999.30 999.05 998.74 998.65 998.52 998.37 998.16 998.06 998.51 998.80 999.26 999.84 1000.76 1001.92 1002.72 1003.33 1003.97 1004.36 1004.33 1004.67
1006.17 1005.07 1003.37 1001.03 999.45 999.04 998.55 998.25 997.73 997.08 996.85 996.95 997.00 996.77 996.58 996.70 997.21 997.34 997.57 998.04 998.10 998.67 999.19 999.51 999.51 999.79 999.71 999.72 999.22 998.84 998.47 998.50 998.28 998.96 999.77 1000.24 1000.98 1001.66 1002.52 1003.20 1003.86 1004.54 1004.96 1005.32 1005.55
Wind_Speed
13 13 12 12 12 12 12 13 14 14 15 17 17 17 17 19 23 13 15 5 5 9 10 20 20 19 15 9 4 6 4 9 13 9 5 8 11 19 28 13 8 16 16 21 20
13 13 13 12 12 12 12 12 14 15 16 17 17 17 16 17 12 18 1 3 2 6 13 20 13 10 13 5 8 4 6 10 14 8 7 4 22 23 13 20 16 16 18 21 20
13 13 13 13 12 11 12 12 13 14 15 16 17 17 16 15 12 16 5 1 3 4 13 21 20 16 12 6 5 12 4 9 10 10 5 15 9 15 7 12 17 13 15 19 17
14 13 13 12 12 12 11 12 13 14 16 16 17 17 19 7 4 6 3 3 6 10 16 23 16 16 12 4 1 7 5 11 6 3 1 9 9 3 14 7 15 15 16 18 18
14 13 13 13 12 11 12 12 13 14 16 17 17 16 12 11 17 9 8 10 10 15 18 14 13 9 12 3 6 11 3 12 9 7 4 1 3 12 14 9 15 17 16 17 16
14 13 13 13 12 12 12 12 13 14 16 16 16 19 8 14 4 11 11 9 14 13 15 11 7 8 13 7 9 5 5 1 10 7 5 4 3 19 7 14 16 13 15 16 15
14 13 13 12 12 12 12 12 13 15 16 16 13 9 11 17 8 7 8 12 14 11 15 3 9 11 16 8 4 7 11 11 7 7 3 6 4 8 10 12 15 16 15 14 14
14 14 13 13 12 12 12 13 14 16 16 16 11 9 9 14 15 10 9 11 9 12 12 6 9 15 9 2 9 14 6 9 5 3 7 9 2 9 11 9 15 16 14 15 14
14 14 13 12 12 11 11 14 17 16 14 15 9 9 17 6 12 12 13 14 15 13 10 6 13 18 16 12 12 8 2 8 7 8 4 6 2 10 9 12 11 13 16 13 14
16 15 13 12 11 11 11 13 9 13 9 10 11 10 17 14 11 15 16 13 12 12 11 11 15 16 12 12 4 8 3 7 2 9 2 8 11 7 10 14 9 12 18 14 16
16 13 13 12 10 9 12 6 7 7 14 14 17 16 11 12 6 9 11 11 12 14 13 16 14 11 3 9 8 6 7 9 3 3 2 5 10 10 7 7 13 9 16 17 16
15 12 12 11 9 7 7 8 12 12 8 22 21 18 10 5 9 12 14 13 17 13 16 15 11 5 7 4 5 7 9 4 4 2 7 10 11 4 3 2 2 6 12 15 17
13 12 11 10 8 6 12 19 13 9 9 21 19 12 12 11 15 15 19 17 14 16 15 16 9 9 1 3 10 14 8 10 6 11 14 11 7 7 5 6 4 6 8 13 15
14 13 11 8 4 11 15 19 14 8 8 17 21 12 18 11 14 14 16 16 13 17 16 15 16 6 4 8 9 10 9 10 9 13 12 13 3 2 19 13 7 5 9 13 15
14 12 11 8 13 12 8 12 7 4 8 20 19 9 11 17 13 15 15 18 16 14 13 11 13 11 3 11 12 11 11 7 11 10 16 12 10 10 18 23 20 5 5 14 13
15 13 9 7 7 15 7 3 7 8 6 15 13 14 17 17 10 15 14 11 13 8 9 15 7 6 9 10 11 7 11 15 16 12 11 4 9 5 7 26 23 4 6 4 10
13 10 7 10 6 9 6 7 8 11 17 18 18 18 17 13 13 13 16 13 11 8 10 13 14 12 6 11 11 12 15 10 7 10 4 11 2 13 22 34 27 1 9 6 6
16 8 14 10 9 10 7 9 10 9 14 17 16 18 16 15 14 14 14 15 16 15 11 13 14 17 12 14 11 15 16 9 4 7 3 12 9 14 24 27 6 12 9 7 8
20 6 7 10 15 11 8 11 8 3 15 16 18 17 14 13 9 13 15 15 15 15 14 12 6 12 2 12 8 16 16 6 11 23 7 8 10 11 10 13 9 14 11 11 19
6 9 10 15 13 9 8 16 17 9 4 16 12 15 13 15 8 13 14 13 13 12 11 17 2 6 8 6 12 16 12 10 7 4 7 5 8 16 9 7 9 5 11 20 23
6 8 11 9 10 8 12 16 2 2 8 4 14 11 12 15 13 11 10 4 8 7 8 13 12 6 4 9 12 9 11 12 9 7 4 6 7 18 6 3 5 11 7 18 19
7 6 11 11 9 9 13 21 5 1 7 14 8 8 8 11 10 13 11 4 7 5 8 10 14 8 13 12 13 7 7 6 2 9 3 9 6 12 8 6 6 4 10 13 6
6 5 8 10 9 11 17 15 0 15 8 10 6 12 3 2 7 11 12 10 5 4 10 9 7 9 14 8 18 12 12 12 15 13 11 7 11 4 6 3 8 9 11 8 6
7 5 5 9 13 18 17 10 11 11 14 7 9 7 5 5 4 5 14 8 3 5 8 4 13 15 13 2 9 7 22 14 13 8 11 11 6 10 7 13 10 8 7 7 5
6 5 8 9 13 16 19 10 14 10 10 5 7 5 8 3 7 10 8 10 5 5 3 6 12 16 17 3 7 14 18 15 16 14 11 14 17 13 14 12 8 5 3 3 6
6 6 12 8 14 16 13 14 13 13 12 9 12 13 13 8 7 1 6 6 8 6 8 11 12 14 16 19 19 13 16 18 12 14 14 15 11 13 13 9 8 7 8 6 2
9 9 7 11 9 8 12 11 10 14 8 8 6 14 9 7 11 9 1 5 9 3 8 13 13 10 14 20 20 16 13 12 10 7 13 11 11 9 7 7 6 6 3 4 5
Wind_Direction
332 324 320 317 317 321 322 323 322 321 318 316 317 318 319 318 308 274 254 281 298 328 316 284 271 264 242 230 258 261 9 131 75 65 112 119 94 29 355 350 95 105 146 153 150
334 326 319 315 313 314 317 319 318 317 315 314 315 315 319 323 294 276 287 206 35 2 301 311 327 237 246 208 124 36 40 38 117 190 100 105 101 109 172 257 100 87 114 136 157
335 328 320 313 309 309 312 313 312 311 310 311 313 312 318 316 276 249 167 177 345 275 273 273 278 266 243 196 39 68 54 122 52 26 67 112 174 175 172 59 96 122 136 149 162
336 330 321 311 307 306 307 308 308 308 308 309 313 316 312 266 264 87 203 226 261 271 274 267 260 265 270 111 69 112 83 79 88 316 212 50 68 46 81 49 94 128 144 156 166
334 331 321 310 303 302 301 302 304 305 305 307 314 320 316 231 244 139 194 220 254 255 266 296 299 306 4 40 130 74 356 140 147 228 104 167 102 18 118 124 104 125 152 158 178
336 331 322 311 303 298 297 299 301 301 301 304 314 313 245 256 169 137 214 221 240 240 257 266 343 351 279 47 32 105 212 215 147 135 168 234 122 117 257 120 115 138 157 166 180
335 331 324 314 303 297 296 297 296 296 296 299 310 299 270 252 324 176 220 233 231 265 279 189 314 296 290 141 133 245 232 206 94 81 336 45 294 129 111 142 143 156 170 168 181
334 333 327 315 304 296 295 295 293 292 293 292 297 277 264 249 251 239 248 242 239 249 282 358 298 277 291 285 190 224 267 122 188 206 144 241 311 136 153 173 159 164 169 165 183
333 333 327 317 306 298 294 294 288 286 275 282 269 228 262 154 216 252 238 233 220 232 245 303 259 263 254 235 225 224 188 108 142 144 274 211 324 184 171 156 176 174 160 170 177
339 334 326 316 307 300 296 287 316 298 229 249 255 262 246 244 200 218 228 241 266 224 225 219 241 253 219 234 217 229 168 114 182 154 77 302 279 229 214 173 177 182 155 168 174
338 329 329 318 308 310 302 214 203 198 227 208 178 236 148 219 119 201 192 211 243 223 226 210 249 243 354 3 16 338 299 327 290 2 271 259 292 278 225 226 173 180 168 171 180
333 328 330 320 309 312 277 244 298 347 197 232 268 222 279 335 213 214 235 202 230 231 224 223 248 279 59 43 326 296 273 278 28 357 244 238 238 281 324 247 233 203 173 176 178
324 329 329 322 316 257 232 246 332 299 262 194 226 229 229 215 243 189 205 208 213 231 220 245 200 70 301 269 251 257 309 45 321 290 257 252 225 149 112 210 207 242 190 183 179
323 325 320 324 282 213 224 240 266 274 274 163 201 226 215 205 233 183 193 206 215 215 242 237 275 144 304 252 276 299 38 329 308 300 303 198 137 319 14 350 153 165 191 177 185
321 317 305 254 322 219 197 215 220 250 266 145 186 187 187 215 131 168 186 209 230 209 225 233 231 281 223 271 285 313 339 309 284 273 277 231 135 13 43 339 299 117 29 188 189
315 311 301 212 228 260 288 161 223 233 207 167 142 175 181 220 201 146 190 249 243 260 245 279 311 259 279 231 259 291 281 271 257 245 261 307 131 12 85 243 272 145 201 36 334
312 291 246 312 240 210 248 226 215 248 141 147 163 174 185 199 162 171 186 203 219 219 224 226 251 251 231 278 271 251 255 261 258 254 12 285 71 170 196 222 246 67 60 42 310
323 275 214 252 316 296 252 223 253 205 194 152 168 176 198 171 168 179 190 204 230 245 273 215 216 203 209 228 267 271 274 293 17 314 209 291 135 167 201 208 98 106 82 71 52
317 195 230 229 231 270 251 226 263 256 131 156 169 185 208 175 172 189 209 217 209 220 264 301 146 171 103 213 230 246 250 271 237 219 195 15 3 114 123 110 115 97 88 70 63
283 218 208 211 178 228 243 250 271 344 91 158 178 190 194 172 215 186 192 224 244 192 243 285 213 181 147 231 251 270 314 295 307 21 360 73 42 252 43 49 74 66 97 80 74
236 232 136 161 187 231 236 244 91 67 320 294 208 174 221 176 194 205 201 196 220 177 248 268 288 158 244 200 241 197 240 243 307 295 145 221 216 262 151 67 29 92 87 123 141
272 266 143 171 208 231 239 249 13 185 215 284 325 296 230 182 185 234 256 191 153 296 196 247 286 294 218 216 215 220 283 259 279 296 327 323 83 43 26 96 96 349 66 62 36
265 135 164 196 224 224 235 266 130 245 198 230 237 281 214 178 180 249 112 78 97 227 17 351 232 260 256 201 -0 334 305 280 278 274 302 267 121 329 217 115 47 38 30 77 57
276 162 166 212 258 295 282 225 229 260 300 231 242 232 283 217 139 231 126 103 141 49 2 318 294 306 302 22 150 234 295 307 296 290 305 311 149 174 87 84 77 61 33 345 111
245 290 173 190 221 245 265 243 227 203 233 229 266 272 238 252 190 224 199 111 163 114 217 254 260 276 293 328 17 194 202 254 250 293 299 317 319 348 69 71 74 70 33 45 347
298 348 331 281 193 225 252 274 227 244 173 217 248 241 233 248 332 211 54 190 176 147 234 237 259 279 285 286 285 288 285 288 251 291 302 299 325 63 74 77 58 53 6 354 354
16 331 287 295 275 217 233 222 253 249 182 269 256 257 231 68 42 34 125 332 330 76 317 311 312 326 300 312 315 304 303 341 334 359 355 341 15 49 48 58 59 24 350 314 341